Fran Budimir

球探 - Imotski
8 十二月 2028
星期五
處理

性格

適應力 (3) 野心 (4) 爭議性 (12) 忠誠度 (18) 抗壓 (1) 職業素養 (3) 體育精神 (10) 性情 (1)

個人檔案

執教風格 民主型
教練證照 國家B級
決心 7
人員管理 2
激勵 8
紀律 2
工作滿意度
100%
疲勞度
0%
職務 球探
薪資 7.1K 每週
合約 14.03.2029

性能

行為 良好
訓練效果
28%
球員發展
25%
傷病預防
25%
戰術執行
35%

近期事件

考察了一名球員 刚刚
参加了招募会议 7天前
考察了一名球員 7天前
考察了一名球員 7天前
考察了一名球員 7天前
考察了一名球員 7天前
考察了一名球員 7天前
考察了一名球員 14天前

正在监控

94
球員 俱樂部 狀態 能力 信心 已观察 最后观察 最新投票
Abel Bustos Racing 活跃 121 / 120 40% 1 05.12.2028 -
Julián Palacios Envigado 活跃 136 / 128 40% 1 05.12.2028 -
Emmanuel Onu Abia Warriors 活跃 77 / 75 40% 1 04.12.2028 -
Martín Campos Ferro Carril Oeste 活跃 135 / 115 40% 1 04.12.2028 -
Miguel Ceccotti Güemes 活跃 106 / 112 40% 3 03.12.2028 -
Santiago Camacho Estudiantes 活跃 86 / 110 40% 3 03.12.2028 -
Gianluca Pugliese Güemes 活跃 109 / 125 40% 2 02.12.2028 -
Lautaro Disanto Defensores Unidos 活跃 103 / 124 40% 3 02.12.2028 -
Elías Ayala Madryn 活跃 118 / 110 40% 3 01.12.2028 -
Franco Ayunta Temperley 活跃 109 / 104 40% 2 01.12.2028 -
Ismail Mukhtar El-Kanemi Warriors 活跃 80 / 73 40% 2 29.11.2028 -
Maximiliano Rueda Patronato 活跃 101 / 106 40% 1 29.11.2028 -
Adeshina Gata Kwara United 活跃 86 / 83 40% 1 26.11.2028 -
Antonio Napolitano Agropecuario Argentino 活跃 99 / 128 40% 6 25.11.2028 -
Nazareno Petrecca Nueva Chicago 活跃 94 / 117 40% 1 25.11.2028 -
Kabiru Abdullahi Barau 活跃 80 / 83 40% 1 22.11.2028 -
Matteo Trombini Arsenal 活跃 109 / 120 40% 1 22.11.2028 -
Matías Sosa Arsenal 活跃 106 / 104 40% 1 21.11.2028 -
Santino Sciacqua Colón 活跃 111 / 118 40% 1 21.11.2028 -
Damián Adín San Miguel 活跃 124 / 96 40% 1 20.11.2028 -
Sebastián de Marco Fenix 活跃 111 / 120 40% 2 19.11.2028 -
Santiago Gutiérrez Alvarado 活跃 120 / 104 40% 3 19.11.2028 -
Emiliano Purita All Boys 活跃 112 / 92 40% 3 17.11.2028 -
Dylan Cabral Arsenal 活跃 111 / 124 40% 3 16.11.2028 -
Diego Gaitán Maipú 活跃 127 / 126 40% 1 16.11.2028 -
Juan David Rueda Alianza Petrolera 活跃 117 / 105 40% 3 15.11.2028 -
Facundo Taborda Racing 活跃 96 / 103 40% 1 15.11.2028 -
Renzo Reynaga Patronato 活跃 94 / 117 40% 2 13.11.2028 -
Santiago Moyano Central Córdoba SdE 活跃 111 / 109 40% 3 10.11.2028 -
Musa Afeez Kwara United 活跃 94 / 100 40% 1 10.11.2028 -
David Eke Enyimba 活跃 73 / 91 40% 2 09.11.2028 -
Jhon Solís Fortaleza CEIF 活跃 98 / 103 40% 2 09.11.2028 -
Naziru Auwalu Wikki Tourists 活跃 91 / 102 40% 2 06.11.2028 -
Luis Sandoval Independiente Medellin 活跃 120 / 121 40% 1 04.11.2028 -
Jerónimo Porto Lapegüe San Telmo 活跃 123 / 109 40% 2 02.11.2028 -
Siro Rosané Estudiantes 活跃 118 / 133 40% 1 02.11.2028 -
Facundo Villarreal Los Andes 活跃 100 / 103 40% 2 30.10.2028 -
Francisco Funes Los Andes 活跃 95 / 95 40% 1 29.10.2028 -
Gustavo Viera Cerro Largo 活跃 117 / 90 40% 1 26.10.2028 -
Santiago Kubiszyn Morón 活跃 102 / 99 40% 1 25.10.2028 -
Agustín Pereira Albion 活跃 125 / 130 40% 1 25.10.2028 -
Pedro Sanz Central Norte 活跃 99 / 119 40% 2 20.10.2028 -
Mafeng Pam Plateau United 活跃 76 / 100 40% 1 20.10.2028 -
Yeferson Rodallega Envigado 活跃 132 / 99 40% 2 18.10.2028 -
Alan Olinick Racing 活跃 100 / 129 40% 2 17.10.2028 -
Gideon Manaseh Ikorodu City 活跃 84 / 92 40% 1 15.10.2028 -
David Veliz Güemes 活跃 104 / 101 40% 1 14.10.2028 -
Yeferson Contreras Estudiantes de Caracas 活跃 101 / 97 40% 1 14.10.2028 -
Álvaro Meléndez Real Cartagena 活跃 100 / 99 40% 2 12.10.2028 -
Gerónimo Tomasetti Temperley 活跃 105 / 91 40% 1 12.10.2028 -
Estanislao Jara Madryn 活跃 97 / 107 40% 2 10.10.2028 -
Alao Dabani Nasarawa United 活跃 92 / 97 40% 1 10.10.2028 -
José Barreto Quilmes 活跃 123 / 98 40% 1 07.10.2028 -
Samuel Bello Patriotas 活跃 86 / 111 40% 1 05.10.2028 -
Shuaibu Ibrahim Wikki Tourists 活跃 102 / 105 40% 1 04.10.2028 -
Lautaro Díaz San Martín 活跃 97 / 99 40% 1 03.10.2028 -
Tobías Macies Almagro 活跃 91 / 111 40% 1 03.10.2028 -
Marcos Enrique Tristán Suárez 活跃 111 / 131 40% 1 02.10.2028 -
Dehinde Ibrahim Bayelsa United 活跃 97 / 85 40% 1 02.10.2028 -
Franco Malagueño Colegiales 活跃 105 / 117 40% 1 21.08.2028 -
Paolo Dorini Estudiantes de Merida 活跃 86 / 94 40% 1 20.08.2028 -
Seth Mayi Warri Wolves 活跃 87 / 99 40% 1 18.08.2028 -
Enzo Silcan Almagro 活跃 97 / 129 40% 1 18.08.2028 -
Ariel Castellano Alvarado 活跃 98 / 111 40% 1 17.08.2028 -
Salman Abubakar Mosta 活跃 100 / 87 40% 1 16.08.2028 -
Bruno Pérez Madryn 活跃 120 / 109 40% 1 13.08.2028 -
Richmond Lamptey Ashanti Gold 活跃 115 / 90 40% 2 10.08.2028 -
Fernando Duré Estudiantes 活跃 95 / 111 40% 1 07.08.2028 -
Franco Zicarelli Colegiales 活跃 107 / 92 40% 1 07.08.2028 -
Will Hondermarck Great Olympics 活跃 85 / 111 40% 1 31.07.2028 -
Kehinde Lawal Bayelsa United 活跃 84 / 94 40% 1 24.07.2028 -
Manuele Malotti Livorno 活跃 93 / 116 40% 1 24.07.2028 -
Yevhen Smyrnyi Kudrivka 活跃 96 / 111 40% 2 04.07.2028 -
Jaiminho Leiria 活跃 99 / 122 40% 1 04.07.2028 -
Daniel Valdelamar Yenisey 活跃 108 / 97 40% 1 27.06.2028 -
Frazer Blake-Tracy Newport County 活跃 89 / 98 40% 1 22.06.2028 -
Jhon Murillo Jaguares 活跃 124 / 109 40% 1 22.06.2028 -
Thomas Agyepong Berekum Chelsea 活跃 103 / 80 40% 1 21.06.2028 -
Yegor Noskov SKA Khabarovsk 活跃 113 / 111 40% 1 21.06.2028 -
Ishmael Addo Heart of Lions 活跃 78 / 98 40% 1 19.06.2028 -
Luka Bilandžić Rudes 活跃 60 / 76 51% 1 12.06.2028 -
Saber Hraiech Trapani 活跃 95 / 99 40% 1 07.06.2028 -
Antonio Salado Ospitaletto 活跃 100 / 107 40% 1 07.06.2028 -
Ilja Zhigulev Chernomorets 活跃 97 / 96 40% 1 04.06.2028 -
Juan Pablo Ramírez Chernomorets 活跃 93 / 99 40% 1 02.06.2028 -
Abeiku Partey Liberty Professionals 活跃 95 / 97 40% 1 02.06.2028 -
Robert Murić Floriana 活跃 102 / 103 40% 1 02.06.2028 -
Kristijan Simunovic Cibalia 活跃 73 / 73 51% 1 24.01.2028 -
Sime Srna Cibalia 活跃 74 / 100 51% 1 01.01.2028 -
Bartol Kunert Segesta 活跃 83 / 89 51% 1 01.06.2027 -
Renato Solís Sporting Cristal 活跃 121 / 142 40% 1 04.08.2026 -
John Amah Plateau United 活跃 95 / 106 40% 1 04.08.2026 -
Thomas Carrique Andorra 活跃 111 / 104 40% 1 01.08.2026 -
Rodrigo Saracho San Marcos de Arica 活跃 130 / 124 40% 1 01.08.2026 -